DW5310 Weather Reports


Display with metric or nautical units.
time (UTC)temp
F
wind
direction
speed
MPH
gust
MPH
rain 1hr
in
rain 24hr
in
rain mn
in
humidity
%
barometer
mb
20260903160006 54 192 0.0 5.0 0.00 0.53 0.09 95 1009.5
20260903155506 54 153 0.0 13.0 0.00 0.53 0.09 95 1009.5
20260903155006 54 148 4.0 13.0 0.00 0.53 0.09 95 1009.5
20260903154506 54 133 3.0 13.0 0.00 0.53 0.09 95 1009.5
20260903154006 54 135 7.0 13.0 0.00 0.53 0.09 95 1009.5
20260903152506 54 127 9.0 15.0 0.00 0.53 0.09 95 1009.5
20260903152006 54 157 7.0 17.0 0.05 0.53 0.09 95 1009.5
20260903151506 54 142 6.0 17.0 0.05 0.53 0.09 95 1009.5
20260903151006 54 129 7.0 21.0 0.05 0.53 0.09 95 1008.5
20260903150506 54 149 8.0 21.0 0.05 0.53 0.09 95 1008.5
20260903150007 54 146 9.0 15.0 0.05 0.53 0.09 95 1008.5
20260903145509 54 153 9.0 16.0 0.05 0.53 0.09 95 1008.5
20260903145006 54 171 8.0 16.0 0.05 0.53 0.09 95 1008.5
20260903144006 54 138 6.0 15.0 0.05 0.53 0.09 94 1008.5
20260903143506 54 168 7.0 18.0 0.05 0.53 0.09 93 1008.5
20260903143006 54 146 9.0 18.0 0.05 0.53 0.09 93 1008.5
20260903142506 54 152 9.0 17.0 0.05 0.53 0.09 93 1008.5
20260903142007 54 137 7.0 20.0 0.00 0.48 0.05 92 1008.5
20260903141507 54 152 11.0 20.0 0.00 0.48 0.05 92 1008.5
20260903140506 54 134 7.0 13.0 0.00 0.48 0.05 92 1007.5
20260903140006 54 137 9.0 14.0 0.00 0.48 0.05 92 1007.5
20260903135506 54 143 8.0 14.0 0.00 0.48 0.05 92 1008.5
20260903135006 54 148 7.0 13.0 0.00 0.48 0.05 92 1008.5
20260903134506 54 148 5.0 13.0 0.00 0.48 0.05 91 1008.5
20260903134006 54 148 6.0 15.0 0.00 0.48 0.05 91 1008.5
20260903133506 54 135 4.0 15.0 0.00 0.48 0.05 91 1008.5
20260903133006 54 140 6.0 15.0 0.00 0.48 0.05 91 1008.5
20260903132506 54 118 7.0 13.0 0.00 0.48 0.05 91 1008.5
20260903132006 55 135 7.0 15.0 0.00 0.48 0.05 91 1008.5
20260903131505 55 148 9.0 15.0 0.00 0.48 0.05 91 1008.5
20260903131006 55 140 8.0 17.0 0.00 0.48 0.05 91 1008.5
20260903130506 55 135 11.0 17.0 0.00 0.48 0.05 91 1008.5
20260903125506 55 137 9.0 23.0 0.00 0.48 0.05 91 1007.5
20260903125006 55 168 12.0 23.0 0.00 0.48 0.05 92 1007.5
20260903124505 55 138 11.0 18.0 0.00 0.48 0.05 92 1007.5
20260903124006 54 125 9.0 18.0 0.00 0.48 0.05 92 1008.5
20260903123506 54 152 11.0 18.0 0.00 0.48 0.05 92 1008.5
20260903123006 54 141 9.0 17.0 0.00 0.48 0.05 92 1008.5
20260903122507 54 148 9.0 17.0 0.00 0.48 0.05 92 1008.5
20260903122006 54 140 11.0 17.0 0.00 0.48 0.05 92 1008.5
20260903121506 54 196 8.0 20.0 0.00 0.48 0.05 93 1008.5
20260903121005 54 151 12.0 20.0 0.00 0.48 0.05 93 1008.5
20260903120506 54 132 11.0 15.0 0.00 0.48 0.05 93 1008.5
20260903120006 54 160 9.0 14.0 0.00 0.48 0.05 93 1008.5
20260903115506 54 148 8.0 15.0 0.00 0.48 0.05 94 1007.5
20260903115005 54 186 8.0 15.0 0.00 0.48 0.05 94 1007.5
20260903114005 54 147 8.0 15.0 0.00 0.48 0.05 94 1008.5
20260903113505 54 151 9.0 15.0 0.00 0.48 0.05 94 1008.5
20260903112506 54 136 11.0 17.0 0.00 0.48 0.05 95 1008.5
20260903112006 54 134 9.0 17.0 0.00 0.48 0.05 95 1008.5
20260903111505 54 140 9.0 17.0 0.00 0.48 0.05 95 1008.5
20260903111005 54 156 6.0 20.0 0.00 0.48 0.05 95 1008.5
20260903110505 54 153 7.0 20.0 0.00 0.48 0.05 95 1008.5
20260903110005 54 147 9.0 20.0 0.00 0.48 0.05 95 1008.5
20260903105506 54 140 9.0 16.0 0.00 0.48 0.05 95 1008.5
20260903105005 54 129 7.0 16.0 0.00 0.48 0.05 95 1008.5
20260903104506 54 166 6.0 21.0 0.00 0.48 0.05 95 1008.5
20260903104006 54 135 11.0 21.0 0.00 0.48 0.05 95 1008.5
20260903103506 54 146 5.0 18.0 0.00 0.48 0.05 95 1008.5
20260903102506 54 131 10.0 21.0 0.00 0.48 0.05 96 1008.5
20260903101505 54 154 9.0 21.0 0.00 0.48 0.05 96 1008.5
20260903100006 54 122 6.0 15.0 0.00 0.48 0.05 97 1008.5
20260903095006 54 147 8.0 16.0 0.00 0.48 0.05 97 1008.5
20260903094506 54 151 7.0 17.0 0.00 0.48 0.05 97 1008.5
20260903094006 54 135 8.0 17.0 0.00 0.48 0.05 97 1008.5
20260903093006 54 144 7.0 16.0 0.00 0.48 0.05 98 1008.5
20260903092505 54 145 7.0 16.0 0.00 0.48 0.05 98 1008.5
20260903092006 54 145 3.0 13.0 0.00 0.48 0.05 98 1008.5
20260903091505 54 125 6.0 13.0 0.00 0.48 0.05 98 1008.5
20260903091006 54 150 6.0 20.0 0.00 0.48 0.05 98 1008.5
20260903090506 54 161 8.0 20.0 0.00 0.48 0.05 98 1008.5
20260903090005 54 148 4.0 10.0 0.00 0.48 0.05 98 1008.5
20260903085505 54 132 3.0 9.0 0.00 0.48 0.05 98 1008.5
20260903085005 54 145 5.0 10.0 0.00 0.48 0.05 97 1008.5
20260903084506 54 142 3.0 10.0 0.05 0.48 0.05 98 1008.5
20260903084005 55 146 3.0 10.0 0.05 0.48 0.05 98 1008.5
20260903083505 54 149 3.0 22.0 0.05 0.48 0.05 98 1008.5
20260903083005 55 146 7.0 22.0 0.05 0.48 0.05 98 1008.5
20260903082505 54 163 6.0 15.0 0.05 0.48 0.05 98 1008.5
20260903082007 54 146 9.0 15.0 0.05 0.48 0.05 98 1008.5
20260903081005 54 143 5.0 15.0 0.05 0.48 0.05 98 1008.5
20260903080505 55 138 9.0 15.0 0.05 0.48 0.05 98 1008.5
20260903080005 55 154 4.0 13.0 0.05 0.48 0.05 98 1008.5
20260903075505 55 132 6.0 15.0 0.05 0.48 0.05 98 1009.5
20260903075005 55 166 5.0 15.0 0.05 0.48 0.05 98 1009.5
20260903074505 55 145 7.0 15.0 0.00 0.44 0.00 98 1009.5
20260903074006 55 202 7.0 15.0 0.00 0.44 0.00 98 1008.5
20260903073505 55 136 6.0 14.0 0.00 0.44 0.00 98 1008.5
20260903073005 55 159 10.0 21.0 0.00 0.44 0.00 98 1008.5
20260903071005 55 134 10.0 24.0 0.00 0.44 0.00 98 1008.5
20260903070506 55 137 9.0 22.0 0.00 0.44 0.00 98 1008.5
20260903070006 55 154 9.0 23.0 0.00 0.44 0.00 98 1008.5
20260903065505 55 152 9.0 23.0 0.00 0.44 0.44 98 1008.5
20260903065005 55 140 7.0 21.0 0.00 0.44 0.44 98 1008.5
20260903064505 55 141 9.0 26.0 0.00 0.44 0.44 97 1008.5
20260903064005 55 169 10.0 26.0 0.00 0.44 0.44 97 1008.5
20260903063505 55 165 10.0 18.0 0.00 0.44 0.44 97 1008.5
20260903063005 55 199 7.0 15.0 0.00 0.44 0.44 96 1008.5
20260903062505 55 203 7.0 13.0 0.00 0.44 0.44 96 1008.5
20260903062005 55 194 6.0 15.0 0.00 0.44 0.44 96 1008.5
20260903061505 55 183 7.0 21.0 0.00 0.44 0.44 96 1008.5
20260903061005 56 163 9.0 21.0 0.00 0.44 0.44 96 1008.5
20260903060505 55 169 7.0 18.0 0.00 0.44 0.44 96 1008.5
20260903060005 55 197 6.0 31.0 0.00 0.44 0.44 97 1008.5
20260903055504 55 178 10.0 31.0 0.00 0.44 0.44 97 1008.5
20260903055005 55 166 8.0 16.0 0.00 0.44 0.44 97 1008.5
20260903054505 55 190 7.0 13.0 0.00 0.44 0.44 97 1008.5
20260903053504 55 217 5.0 12.0 0.00 0.44 0.44 97 1008.5
20260903052505 55 199 2.0 10.0 0.00 0.44 0.44 97 1008.5
20260903051504 55 205 2.0 8.0 0.00 0.44 0.44 97 1008.5
20260903051004 55 208 3.0 8.0 0.00 0.44 0.44 97 1008.5
20260903045004 56 192 3.0 7.0 0.00 0.44 0.44 97 1008.5
20260903044505 56 192 2.0 9.0 0.00 0.44 0.44 97 1008.5
20260903044005 56 194 2.0 9.0 0.00 0.44 0.44 97 1008.5
20260903043505 56 185 5.0 13.0 0.00 0.44 0.44 97 1008.5
20260903043005 56 192 5.0 16.0 0.00 0.44 0.44 97 1008.5
20260903042505 56 127 3.0 16.0 0.00 0.44 0.44 97 1007.5
20260903042004 56 202 7.0 15.0 0.00 0.44 0.44 97 1007.5
20260903041504 56 159 6.0 15.0 0.00 0.44 0.44 97 1007.5
20260903041005 56 150 9.0 15.0 0.00 0.44 0.44 97 1008.5
20260903040008 56 143 9.0 18.0 0.00 0.44 0.44 98 1008.5
20260903035504 56 172 9.0 17.0 0.00 0.44 0.44 98 1008.5
20260903035005 56 149 8.0 17.0 0.00 0.44 0.44 98 1008.5
20260903034505 56 167 6.0 17.0 0.00 0.44 0.44 98 1008.5
20260903033504 56 153 8.0 20.0 0.00 0.44 0.44 98 1008.5
20260903033005 56 154 10.0 20.0 0.00 0.44 0.44 98 1008.5
20260903032005 57 152 5.0 15.0 0.00 0.44 0.44 98 1008.5
20260903031505 57 156 7.0 16.0 0.00 0.44 0.44 98 1008.5
20260903031004 57 138 10.0 16.0 0.00 0.44 0.44 98 1008.5
20260903030505 57 168 9.0 15.0 0.00 0.44 0.44 98 1008.5
20260903030005 57 154 7.0 17.0 0.00 0.44 0.44 98 1008.5
20260903025505 57 141 7.0 17.0 0.00 0.44 0.44 98 1008.5
20260903025005 57 144 7.0 15.0 0.00 0.44 0.44 98 1008.5
20260903024504 57 146 9.0 17.0 0.00 0.44 0.44 98 1008.5
20260903024004 57 197 9.0 17.0 0.00 0.44 0.44 98 1008.5
20260903023505 57 161 11.0 20.0 0.00 0.44 0.44 98 1008.5
20260903023005 57 214 10.0 20.0 0.00 0.44 0.44 98 1008.5
20260903022505 57 181 12.0 20.0 0.00 0.44 0.44 98 1007.5
20260903022007 57 145 9.0 15.0 0.00 0.44 0.44 98 1007.5
20260903021505 57 215 2.0 2.0 0.00 0.44 0.44 98 1007.5
20260903021005 57 215 2.0 2.0 0.00 0.44 0.44 98 1007.5
20260903020504 57 215 2.0 2.0 0.00 0.44 0.44 98 1007.5
20260903020004 57 215 2.0 2.0 0.00 0.44 0.44 98 1007.5
20260903015504 57 215 2.0 2.0 0.00 0.44 0.44 98 1006.5
20260903014504 57 215 2.0 2.0 0.00 0.44 0.44 98 1006.5
20260903014004 57 215 2.0 2.0 0.00 0.44 0.44 98 1007.5
20260903013504 57 215 2.0 2.0 0.00 0.44 0.44 98 1007.5
20260903013004 57 215 2.0 2.0 0.00 0.44 0.44 98 1007.5
20260903012505 58 215 2.0 2.0 0.00 0.44 0.44 98 1006.5
20260903012004 58 215 2.0 2.0 0.00 0.44 0.44 98 1006.5
20260903011505 57 215 2.0 2.0 0.00 0.44 0.44 98 1006.5
20260903011004 57 215 2.0 2.0 0.00 0.44 0.44 98 1006.5
20260903010504 57 215 2.0 2.0 0.00 0.44 0.44 98 1006.5
20260903005504 57 215 2.0 2.0 0.00 0.44 0.44 98 1006.5
20260903005005 57 215 2.0 2.0 0.06 0.44 0.44 97 1006.5
20260903004004 57 215 2.0 2.0 0.10 0.44 0.44 97 1006.5
20260903003504 57 215 2.0 2.0 0.10 0.44 0.44 97 1006.5
20260903003004 57 215 2.0 2.0 0.10 0.44 0.44 98 1006.5
20260903002004 57 215 2.0 2.0 0.15 0.44 0.44 97 1006.5
20260903001004 57 215 2.0 2.0 0.15 0.44 0.44 97 1006.5
20260903000504 57 215 2.0 2.0 0.15 0.44 0.44 97 1006.5
20260903000004 57 215 2.0 2.0 0.15 0.44 0.44 97 1006.5
20260902235504 57 215 2.0 2.0 0.15 0.44 0.44 96 1006.5
20260902235004 57 215 2.0 2.0 0.09 0.38 0.38 96 1006.5
20260902234504 57 215 2.0 2.0 0.09 0.38 0.38 96 1006.5
20260902234004 57 215 2.0 2.0 0.05 0.34 0.34 96 1006.5
20260902233004 58 215 2.0 2.0 0.05 0.34 0.34 96 1006.5
20260902232503 58 215 2.0 2.0 0.00 0.29 0.29 96 1006.5
20260902232004 58 215 2.0 2.0 0.00 0.29 0.29 96 1006.5
20260902231004 58 215 2.0 2.0 0.00 0.29 0.29 95 1006.5
20260902230504 58 215 2.0 2.0 0.00 0.29 0.29 95 1006.5
20260902230005 58 215 2.0 2.0 0.00 0.29 0.29 95 1006.5
20260902225504 58 215 2.0 2.0 0.00 0.29 0.29 95 1006.5
20260902225004 58 215 2.0 2.0 0.00 0.29 0.29 94 1006.5
20260902224504 58 215 2.0 2.0 0.00 0.29 0.29 94 1006.5
20260902223504 58 215 2.0 2.0 0.00 0.29 0.29 94 1006.5
20260902223003 58 215 2.0 2.0 0.00 0.29 0.29 95 1006.5
20260902222504 58 215 2.0 2.0 0.00 0.29 0.29 95 1006.5
20260902222004 58 215 2.0 2.0 0.00 0.29 0.29 95 1006.5
20260902221504 58 215 2.0 2.0 0.00 0.29 0.29 94 1006.5
20260902221004 58 215 2.0 2.0 0.00 0.29 0.29 94 1006.5
20260902220504 58 215 2.0 2.0 0.00 0.29 0.29 94 1006.5
20260902220004 58 215 2.0 2.0 0.00 0.29 0.29 94 1006.5
20260902215504 58 215 2.0 2.0 0.00 0.29 0.29 94 1006.5
20260902215004 58 215 2.0 2.0 0.00 0.29 0.29 94 1006.5
20260902214003 58 215 2.0 2.0 0.00 0.29 0.29 94 1006.5
20260902213504 58 215 2.0 2.0 0.00 0.29 0.29 94 1006.5
20260902213003 58 215 2.0 2.0 0.00 0.29 0.29 94 1006.5
20260902212504 58 215 2.0 2.0 0.00 0.29 0.29 94 1006.5
20260902212004 58 215 2.0 2.0 0.05 0.29 0.29 94 1006.5
20260902211504 58 215 2.0 2.0 0.05 0.29 0.29 94 1006.5
20260902211004 58 215 2.0 2.0 0.05 0.29 0.29 94 1006.5
20260902210504 58 215 2.0 2.0 0.05 0.29 0.29 94 1006.5
20260902210004 57 215 2.0 2.0 0.10 0.29 0.29 94 1006.5
20260902205503 57 215 2.0 2.0 0.10 0.29 0.29 93 1006.5
20260902205004 57 215 2.0 2.0 0.10 0.29 0.29 93 1006.5
20260902204504 57 215 2.0 2.0 0.14 0.29 0.29 93 1006.5
20260902204004 57 215 2.0 2.0 0.14 0.29 0.29 93 1006.5
20260902203504 57 215 2.0 2.0 0.20 0.29 0.29 93 1006.5
20260902203004 57 215 2.0 2.0 0.20 0.29 0.29 93 1006.5
20260902202504 57 215 2.0 2.0 0.20 0.29 0.29 93 1005.5
20260902202004 57 215 2.0 2.0 0.15 0.24 0.24 93 1005.5
20260902201507 57 215 2.0 2.0 0.15 0.24 0.24 92 1005.5
20260902201007 57 215 2.0 2.0 0.19 0.24 0.24 92 1006.5
20260902200507 57 215 2.0 2.0 0.19 0.24 0.24 92 1006.5
20260902200006 57 215 2.0 2.0 0.15 0.19 0.19 92 1006.5
20260902195506 57 215 2.0 2.0 0.15 0.19 0.19 91 1006.5
20260902195006 57 215 2.0 2.0 0.15 0.19 0.19 91 1006.5
20260902194507 58 215 2.0 2.0 0.10 0.15 0.15 91 1006.5
20260902193506 58 215 2.0 2.0 0.05 0.09 0.09 90 1006.5
20260902193007 58 215 2.0 2.0 0.05 0.09 0.09 89 1006.5
20260902192507 58 215 2.0 2.0 0.05 0.09 0.09 89 1006.5
20260902192006 58 215 2.0 2.0 0.09 0.09 0.09 89 1006.5
20260902191507 58 215 2.0 2.0 0.09 0.09 0.09 89 1006.5
20260902191007 58 215 2.0 2.0 0.05 0.05 0.05 88 1006.5
20260902190507 58 215 2.0 2.0 0.05 0.05 0.05 88 1006.5
20260902190006 58 215 2.0 2.0 0.05 0.05 0.05 88 1006.5
20260902185507 58 215 2.0 2.0 0.05 0.05 0.05 88 1006.5
20260902185007 58 215 2.0 2.0 0.05 0.05 0.05 88 1006.5
20260902184506 58 215 2.0 2.0 0.05 0.05 0.05 87 1006.5
20260902183506 58 215 2.0 2.0 0.05 0.05 0.05 87 1005.5
20260902183006 58 215 2.0 2.0 0.05 0.05 0.05 86 1005.5
20260902182506 58 215 2.0 2.0 0.05 0.05 0.05 85 1006.5
20260902182007 59 215 2.0 2.0 0.00 0.00 0.00 83 1006.5
20260902181506 59 215 2.0 2.0 0.00 0.00 0.00 82 1006.5
20260902181006 59 215 2.0 2.0 0.00 0.00 0.00 81 1006.5
20260902180506 59 215 2.0 2.0 0.00 0.00 0.00 80 1006.5
20260902180008 60 215 2.0 2.0 0.00 0.00 0.00 79 1006.5
20260902175506 60 215 2.0 2.0 0.00 0.00 0.00 78 1006.5
20260902175007 60 215 2.0 2.0 0.00 0.00 0.00 77 1006.5
20260902174507 61 215 2.0 2.0 0.00 0.00 0.00 76 1006.5
20260902174007 61 215 2.0 2.0 0.00 0.00 0.00 75 1006.5
20260902173507 62 215 2.0 2.0 0.00 0.00 0.00 74 1006.5
20260902173006 62 215 2.0 2.0 0.00 0.00 0.00 73 1006.5
20260902172506 62 215 2.0 2.0 0.00 0.00 0.00 72 1007.5
20260902172007 63 215 2.0 2.0 0.00 0.00 0.00 71 1007.5
20260902171506 63 215 2.0 2.0 0.00 0.00 0.00 70 1007.5
20260902171007 63 215 2.0 2.0 0.00 0.00 0.00 69 1006.5
20260902165507 64 215 2.0 2.0 0.00 0.00 0.00 68 1006.5
20260902165007 63 215 2.0 2.0 0.00 0.00 0.00 68 1006.5
20260902164506 63 215 2.0 2.0 0.00 0.00 0.00 68 1006.5
20260902164007 63 215 2.0 2.0 0.00 0.00 0.00 68 1006.5
20260902163507 63 215 2.0 2.0 0.00 0.00 0.00 69 1006.5
20260902163007 63 215 2.0 2.0 0.00 0.00 0.00 69 1006.5
20260902162507 63 215 2.0 2.0 0.00 0.00 0.00 70 1006.5
20260902162006 63 215 2.0 2.0 0.00 0.00 0.00 70 1006.5
20260902161506 62 215 2.0 2.0 0.00 0.00 0.00 71 1006.5
20260902160506 62 215 2.0 2.0 0.00 0.00 0.00 72 1006.5